Regional Weather Roundup
Issued by NWS

Home | Current Version | Previous Version | Graphics & Text | Print | Product List | Glossary On
Versions: 1 2 3 4 5 6 7 8 9 10 11 12 13 14 15 16 17 18 19 20 21 22 23 24 25 26 27 28 29 30 31 32 33 34 35 36 37 38 39 40 41 42 43 44 45 46 47 48 49 50
100
ASUS43 KIND 250559
RWRIN

WEATHER ROUNDUP FOR INDIANA
NATIONAL WEATHER SERVICE INDIANAPOLIS IN
200 AM EDT SUN SEP 25 2016

NOTE: "FAIR" INDICATES FEW OR NO CLOUDS BELOW 12,000 FEET WITH NO
SIGNIFICANT WEATHER AND/OR OBSTRUCTIONS TO VISIBILITY.

* - STATION DOES NOT REPORT WEATHER SUCH AS PRECIPITATION OR FOG.

+ - STATION NOT QUALITY CONTROLLED BY THE NATIONAL WEATHER SERVICE.
    USE DATA WITH CAUTION...ESPECIALLY DEWPOINT AND RELATIVE
    HUMIDITY OBSERVATIONS.

INZ001>003-010>013-019-020-250700-
NORTHWEST INDIANA

CITY           SKY/WX    TMP DP  RH WIND       PRES   REMARKS

$$

LMZ046-743>745-250700-
SOUTHERN LAKE MICHIGAN

STATION/POSITION TIME  TEMP    WIND        PRES    WAVE
                       AIR SEA DIR/SP/G            HT
                 (UTC) (F)     (DEG/KT/KT) (MB)    (FT)
BURNS HARBOR     0512   69     140/ 11/ 16 1021.0S
MICHIGAN CITY    0500   67     110/  8/ 11   N/A
5NW MICH CITY    0500   67 70  130/  6/  8   N/A     1

$$

INZ004-005-014>016-021>024-250700-
NORTH CENTRAL INDIANA

CITY           SKY/WX    TMP DP  RH WIND       PRES   REMARKS
GOSHEN         CLEAR     61  54  77 SE7       30.18S
6HR MIN TEMP:  61; 6HR MAX TEMP:  68;

SOUTH BEND     CLEAR     63  57  81 E12       30.18R
6HR MIN TEMP:  63; 6HR MAX TEMP:  70;


$$

INZ006>009-017-018-025>027-250700-
NORTHEAST INDIANA

CITY           SKY/WX    TMP DP  RH WIND       PRES   REMARKS
ANGOLA *+        N/A     57  46  67 SE6       30.20S
FORT WAYNE     CLEAR     60  53  77 E6        30.19R
6HR MIN TEMP:  60; 6HR MAX TEMP:  70;

KENDALLVILLE + CLEAR     58  54  85 SE6       30.21R

$$

INZ028-029-035-036-043>045-051>053-250700-
WEST CENTRAL INDIANA

CITY           SKY/WX    TMP DP  RH WIND       PRES   REMARKS
CRAWFORDSVL +  CLEAR     63  63 100 CALM      30.14S
6HR MIN TEMP:  63; 6HR MAX TEMP:  73;

LAFAYETTE      CLEAR     66  64  93 E8        30.13S
6HR MIN TEMP:  66; 6HR MAX TEMP:  74;

TERRE HAUTE    CLEAR     67  64  90 E5        30.12R
6HR MIN TEMP:  67; 6HR MAX TEMP:  77;


$$

INZ030>032-037>040-046>048-054>057-064-065-250700-
CENTRAL INDIANA

CITY           SKY/WX    TMP DP  RH WIND       PRES   REMARKS
INDIANAPOLIS   CLEAR     70  63  78 E8        30.13R
6HR MIN TEMP:  70; 6HR MAX TEMP:  76;

-EAGLE CREEK   CLEAR     69  63  81 NE5       30.14R
6HR MIN TEMP:  69; 6HR MAX TEMP:  76;

MT COMFORT *+  CLEAR     63  61  94 CALM      30.15S
SHELBYVILLE    CLEAR     67  62  84 NE5       30.13R
6HR MIN TEMP:  67; 6HR MAX TEMP:  75;


$$

INZ033-034-041-042-049-050-058-059-250700-
EAST CENTRAL INDIANA

CITY           SKY/WX    TMP DP  RH WIND       PRES   REMARKS
MUNCIE         CLEAR     63  58  83 E7        30.17R
6HR MIN TEMP:  63; 6HR MAX TEMP:  72;


$$

INZ060-061-067>069-081>083-085>088-250700-
SOUTHWEST INDIANA

CITY           SKY/WX    TMP DP  RH WIND       PRES   REMARKS
EVANSVILLE     CLEAR     71  65  81 CALM      30.09R
6HR MIN TEMP:  70; 6HR MAX TEMP:  80;

HUNTINGBURG *+   N/A     70  64  83 NE5       30.10R
6HR MIN TEMP:  70; 6HR MAX TEMP:  81;


$$

INZ062-063-066-070>080-084-089>092-250700-
SOUTH CENTRAL AND SOUTHEAST INDIANA

CITY           SKY/WX    TMP DP  RH WIND       PRES   REMARKS
BLOOMINGTON    CLEAR     68  65  90 CALM      30.13R
6HR MIN TEMP:  68; 6HR MAX TEMP:  77;

MADISON *+     CLEAR     70  64  83 E3        30.14R
SEYMOUR +      CLEAR     68  64  88 CALM      30.11S

$$





USA.gov is the U.S. government's official web portal to all federal, state and local government web resources and services.